FW2617 Weather Reports


time (UTC)temp
F
wind
direction
speed
knots
gust
knots
rain 1hr
in
rain 24hr
in
rain mn
in
humidity
%
barometer
mb
20260905133604 78 179 0.9 3.5 0.00 0.00 0.00 85 1011.0
20260905132704 78 187 1.7 4.3 0.00 0.00 0.00 85 1010.9
20260905131825 77 174 1.7 5.2 0.00 0.00 0.00 86 1011.0
20260905130904 76 168 1.7 5.2 0.00 0.00 0.00 87 1010.8
20260905130025 76 166 1.7 4.3 0.00 0.00 0.00 87 1010.7
20260905125425 76 166 1.7 5.2 0.00 0.00 0.00 87 1010.9
20260905124504 76 176 0.0 3.5 0.00 0.00 0.00 87 1010.8
20260905123604 76 0 0.0 0.0 0.00 0.00 0.00 87 1010.9
20260905122704 76 0 0.0 0.0 0.00 0.00 0.00 86 1010.8
20260905121826 76 0 0.0 0.0 0.00 0.00 0.00 86 1010.9
20260905120904 76 0 0.0 0.0 0.00 0.00 0.00 86 1010.8
20260905120004 76 0 0.0 0.0 0.00 0.00 0.00 85 1010.8
20260905115405 76 0 0.0 0.0 0.00 0.00 0.00 85 1010.6
20260905114525 76 0 0.0 0.0 0.00 0.00 0.00 85 1010.7
20260905113604 76 0 0.0 0.0 0.00 0.00 0.00 85 1010.6
20260905112704 76 0 0.0 0.0 0.00 0.00 0.00 85 1010.6
20260905111804 76 0 0.0 0.0 0.00 0.00 0.00 85 1010.5
20260905110904 77 0 0.0 0.0 0.00 0.00 0.00 85 1010.5
20260905110004 77 0 0.0 0.0 0.00 0.00 0.00 84 1010.5
20260905105425 77 0 0.0 0.0 0.00 0.00 0.00 84 1010.5
20260905104504 77 0 0.0 0.0 0.00 0.00 0.00 84 1010.4
20260905103604 77 0 0.0 0.0 0.00 0.00 0.00 84 1010.4
20260905102705 77 0 0.0 0.0 0.00 0.00 0.00 83 1010.3
20260905101825 77 0 0.0 0.0 0.00 0.00 0.00 83 1010.3
20260905100905 77 159 0.0 3.5 0.00 0.00 0.00 83 1010.4
20260905100025 77 0 0.0 0.0 0.00 0.00 0.00 83 1010.4
20260905095404 78 207 0.0 0.9 0.00 0.00 0.00 83 1010.4
20260905094504 78 207 0.0 1.7 0.00 0.00 0.00 82 1010.5
20260905093604 78 204 0.0 2.6 0.00 0.00 0.00 82 1010.5
20260905092704 78 210 0.0 2.6 0.00 0.00 0.00 81 1010.3
20260905091804 78 194 0.0 2.6 0.00 0.00 0.00 82 1010.3
20260905090904 78 0 0.0 0.0 0.00 0.00 0.00 81 1010.2
20260905090004 78 0 0.0 0.0 0.00 0.00 0.00 81 1010.3
20260905085425 78 0 0.0 0.0 0.00 0.00 0.00 80 1010.2
20260905084504 78 173 0.0 2.6 0.00 0.00 0.00 80 1010.2
20260905083604 78 175 0.9 3.5 0.00 0.00 0.00 80 1010.1
20260905082725 79 167 0.9 3.5 0.00 0.00 0.00 80 1010.1
20260905081825 79 159 0.9 3.5 0.00 0.00 0.00 79 1010.1
20260905080904 79 154 0.0 3.5 0.00 0.00 0.00 79 1010.1
20260905080025 79 0 0.0 0.0 0.00 0.00 0.00 79 1010.2
20260905075404 79 0 0.0 0.0 0.00 0.00 0.00 78 1010.1
20260905074525 80 177 0.0 1.7 0.00 0.00 0.00 78 1010.1
20260905073604 80 185 0.0 3.5 0.00 0.00 0.00 78 1010.0
20260905072704 80 196 0.9 3.5 0.00 0.00 0.00 77 1010.1
20260905071804 80 184 0.9 3.5 0.00 0.00 0.00 77 1010.2
20260905070904 80 182 0.9 3.5 0.00 0.00 0.00 76 1010.3
20260905070004 81 180 0.9 3.5 0.00 0.00 0.00 76 1010.4
20260905065425 81 174 0.9 3.5 0.00 0.00 0.00 75 1010.5
20260905064504 81 206 0.0 2.6 0.00 0.00 0.00 75 1010.6
20260905063604 81 201 0.0 2.6 0.00 0.00 0.00 74 1010.6
20260905062725 82 193 0.0 2.6 0.00 0.00 0.00 74 1010.7
20260905061804 82 189 0.0 2.6 0.00 0.00 0.00 74 1010.6
20260905060925 82 184 0.9 3.5 0.00 0.00 0.00 73 1010.6
20260905060004 82 175 0.9 4.3 0.00 0.00 0.00 72 1010.6
20260905055404 82 169 0.9 4.3 0.00 0.00 0.00 72 1010.6
20260905054504 83 166 1.7 4.3 0.00 0.00 0.00 71 1010.4
20260905053604 83 169 1.7 4.3 0.00 0.00 0.00 71 1010.3
20260905052725 83 173 1.7 4.3 0.00 0.00 0.00 70 1010.3
20260905051804 84 179 0.9 3.5 0.00 0.00 0.00 70 1010.3
20260905050904 84 167 1.7 5.2 0.00 0.00 0.00 69 1010.3
20260905050004 84 174 2.6 6.1 0.00 0.00 0.00 68 1010.1
20260905045404 84 170 2.6 6.1 0.00 0.00 0.00 68 1010.0
20260905044504 85 167 2.6 7.0 0.00 0.00 0.00 68 1010.1
20260905043604 85 167 3.5 9.6 0.00 0.00 0.00 67 1010.1
20260905042704 85 168 3.5 8.7 0.00 0.00 0.00 67 1010.1
20260905041804 85 167 3.5 8.7 0.00 0.00 0.00 66 1010.1
20260905040904 86 166 3.5 8.7 0.00 0.00 0.00 65 1010.2
20260905040004 86 162 3.5 8.7 0.00 0.00 0.00 64 1010.2
20260905035404 86 165 2.6 7.0 0.00 0.00 0.00 63 1010.3
20260905034504 86 161 3.5 7.0 0.00 0.00 0.00 62 1010.3
20260905033604 87 163 4.3 8.7 0.00 0.00 0.00 61 1010.2
20260905032704 87 163 4.3 9.6 0.00 0.00 0.00 60 1010.2
20260905031804 87 165 3.5 10.4 0.00 0.00 0.00 60 1010.2
20260905030925 88 165 3.5 7.8 0.00 0.00 0.00 59 1010.1
20260905030004 88 162 4.3 9.6 0.00 0.00 0.00 58 1010.1
20260905025404 88 165 3.5 9.6 0.00 0.00 0.00 58 1010.0
20260905024504 88 167 3.5 8.7 0.00 0.00 0.00 57 1009.9
20260905023604 89 165 3.5 7.8 0.00 0.00 0.00 56 1009.7
20260905022704 89 166 3.5 7.8 0.00 0.00 0.00 55 1009.5
20260905021804 89 161 3.5 7.8 0.00 0.00 0.00 55 1009.3
20260905020904 90 159 3.5 7.8 0.00 0.00 0.00 54 1009.2
20260905020004 90 153 2.6 7.0 0.00 0.00 0.00 53 1009.0
20260905015404 90 152 2.6 6.1 0.00 0.00 0.00 52 1008.9
20260905014504 91 151 3.5 7.8 0.00 0.00 0.00 52 1008.8
20260905013604 91 148 3.5 7.8 0.00 0.00 0.00 51 1008.6
20260905012704 91 149 3.5 7.8 0.00 0.00 0.00 51 1008.5
20260905011804 92 151 2.6 6.1 0.00 0.00 0.00 50 1008.4
20260905010904 92 149 3.5 7.8 0.00 0.00 0.00 50 1008.4
20260905010025 92 150 3.5 7.8 0.00 0.00 0.00 49 1008.4
20260905005404 93 150 2.6 7.0 0.00 0.00 0.00 48 1008.3
20260905004504 93 157 3.5 7.0 0.00 0.00 0.00 48 1008.1
20260905003604 94 154 3.5 7.8 0.00 0.00 0.00 48 1008.1
20260905002704 94 154 2.6 8.7 0.00 0.00 0.00 47 1007.9
20260905001804 95 145 3.5 8.7 0.00 0.00 0.00 47 1007.8
20260905000904 95 144 4.3 11.3 0.00 0.00 0.00 46 1007.8
20260905000004 96 144 4.3 10.4 0.00 0.00 0.00 45 1007.7
20260904235425 96 148 5.2 11.3 0.00 0.00 0.00 45 1007.7
20260904234504 97 156 4.3 10.4 0.00 0.00 0.00 44 1007.7
20260904233604 97 159 3.5 8.7 0.00 0.00 0.00 44 1007.7
20260904232704 96 166 4.3 9.6 0.00 0.00 0.00 43 1007.7
20260904231804 98 155 3.5 9.6 0.00 0.00 0.00 42 1007.6
20260904230904 98 152 4.3 11.3 0.00 0.00 0.00 42 1007.5
20260904230025 99 150 4.3 11.3 0.00 0.00 0.00 41 1007.6
20260904225404 99 157 4.3 9.6 0.00 0.00 0.00 39 1007.6
20260904224504 100 154 4.3 9.6 0.00 0.00 0.00 38 1007.6
20260904223604 100 157 4.3 12.2 0.00 0.00 0.00 38 1007.7
20260904222725 101 160 2.6 7.8 0.00 0.00 0.00 38 1007.7
20260904221804 100 154 2.6 8.7 0.00 0.00 0.00 39 1007.8
20260904220904 100 161 4.3 8.7 0.00 0.00 0.00 39 1007.9
20260904220004 100 154 4.3 8.7 0.00 0.00 0.00 38 1007.9
20260904215404 101 145 3.5 8.7 0.00 0.00 0.00 39 1007.9
20260904214504 101 172 4.3 8.7 0.00 0.00 0.00 41 1008.0
20260904213604 101 176 3.5 9.6 0.00 0.00 0.00 41 1008.0
20260904212725 100 165 4.3 13.0 0.00 0.00 0.00 40 1008.2
20260904211804 100 158 3.5 11.3 0.00 0.00 0.00 41 1008.4
20260904210904 101 148 4.3 11.3 0.00 0.00 0.00 40 1008.4
20260904210004 101 163 3.5 9.6 0.00 0.00 0.00 40 1008.6
20260904205404 101 188 3.5 7.8 0.00 0.00 0.00 39 1008.6
20260904204504 101 152 3.5 9.6 0.00 0.00 0.00 38 1008.7
20260904203604 100 162 3.5 8.7 0.00 0.00 0.00 40 1008.8
20260904202704 99 158 3.5 9.6 0.00 0.00 0.00 41 1009.0
20260904201804 100 158 2.6 7.8 0.00 0.00 0.00 40 1009.0
20260904200904 99 169 4.3 10.4 0.00 0.00 0.00 42 1009.1
20260904200025 99 188 4.3 9.6 0.00 0.00 0.00 43 1009.3
20260904195425 98 179 3.5 10.4 0.00 0.00 0.00 43 1009.4
20260904194504 97 191 4.3 9.6 0.00 0.00 0.00 45 1009.6
20260904193604 98 151 3.5 11.3 0.00 0.00 0.00 43 1009.8
20260904192704 97 166 4.3 10.4 0.00 0.00 0.00 44 1009.9
20260904191824 98 167 2.6 7.0 0.00 0.00 0.00 44 1009.8
20260904190904 99 167 3.5 7.8 0.00 0.00 0.00 45 1010.0
20260904190004 98 159 3.5 7.8 0.00 0.00 0.00 46 1010.1
20260904185404 98 171 2.6 7.8 0.00 0.00 0.00 47 1010.1
20260904184525 96 173 3.5 10.4 0.00 0.00 0.00 47 1010.2
20260904183604 97 170 3.5 9.6 0.00 0.00 0.00 48 1010.4
20260904182704 97 154 3.5 9.6 0.00 0.00 0.00 50 1010.5
20260904181804 95 164 2.6 8.7 0.00 0.00 0.00 51 1010.7
20260904180924 95 186 3.5 9.6 0.00 0.00 0.00 52 1010.8
20260904180004 95 171 2.6 7.0 0.00 0.00 0.00 53 1010.9
20260904175403 95 181 3.5 7.8 0.00 0.00 0.00 53 1011.0
20260904174503 94 175 3.5 9.6 0.00 0.00 0.00 54 1011.1
20260904173604 93 181 2.6 7.8 0.00 0.00 0.00 57 1011.2
20260904172704 93 194 4.3 7.8 0.00 0.00 0.00 57 1011.4
20260904171804 92 201 3.5 10.4 0.00 0.00 0.00 59 1011.5
20260904170904 92 175 3.5 11.3 0.00 0.00 0.00 61 1011.5
20260904170004 91 206 3.5 9.6 0.00 0.00 0.00 61 1011.6
20260904165425 91 185 3.5 10.4 0.00 0.00 0.00 61 1011.6
20260904164504 90 170 4.3 10.4 0.00 0.00 0.00 63 1011.7
20260904163604 90 195 3.5 8.7 0.00 0.00 0.00 64 1011.7
20260904162704 89 192 4.3 12.2 0.00 0.00 0.00 65 1011.8
20260904161804 88 199 3.5 7.8 0.00 0.00 0.00 67 1011.8
20260904160904 88 183 4.3 11.3 0.00 0.00 0.00 69 1011.7
20260904160004 87 183 4.3 8.7 0.00 0.00 0.00 70 1011.7
20260904155404 87 185 4.3 10.4 0.00 0.00 0.00 71 1011.7
20260904154504 86 192 5.2 10.4 0.00 0.00 0.00 73 1011.7
20260904153604 85 191 7.0 12.2 0.00 0.00 0.00 74 1011.6
20260904152725 85 193 5.2 12.2 0.00 0.00 0.00 73 1011.6
20260904151803 85 188 6.1 13.0 0.00 0.00 0.00 73 1011.7
20260904150904 85 188 6.1 12.2 0.00 0.00 0.00 75 1011.5
20260904150004 84 176 4.3 11.3 0.00 0.00 0.00 75 1011.6
20260904145404 84 179 5.2 11.3 0.00 0.00 0.00 77 1011.6
20260904144504 83 176 4.3 9.6 0.00 0.00 0.00 80 1011.6
20260904143604 83 177 3.5 8.7 0.00 0.00 0.00 82 1011.8
20260904142704 82 192 3.5 9.6 0.00 0.00 0.00 82 1011.7
20260904141804 82 166 2.6 6.1 0.00 0.00 0.00 84 1011.7
20260904140904 82 158 2.6 7.0 0.00 0.00 0.00 85 1011.6
20260904140004 82 155 2.6 7.8 0.00 0.00 0.00 86 1011.6
20260904135403 81 155 2.6 7.0 0.00 0.00 0.00 86 1011.6
20260904134504 80 158 2.6 7.0 0.00 0.00 0.00 88 1011.5